DW7584 Weather Reports


Display with metric or nautical units.
time (UTC)temp
F
wind
direction
speed
MPH
gust
MPH
rain 1hr
in
rain 24hr
in
rain mn
in
humidity
%
barometer
mb
20260902235017 81 0.0 0.0 0.00 0.45 0.45 77 1014.1
20260902234017 81 0.0 0.0 0.00 0.45 0.45 77 1014.1
20260902233017 81 0.0 1.0 0.00 0.45 0.45 77 1014.1
20260902232038 82 0.0 1.0 0.00 0.45 0.45 76 1014.3
20260902231038 81 0.0 1.0 0.00 0.45 0.45 75 1014.2
20260902230017 81 248 1.0 2.0 0.00 0.45 0.45 76 1014.3
20260902225017 81 0.0 1.0 0.00 0.45 0.45 75 1014.2
20260902224017 80 0.0 1.0 0.00 0.45 0.45 75 1014.2
20260902223017 81 225 1.0 3.0 0.00 0.45 0.45 75 1014.2
20260902222038 81 225 1.0 3.0 0.00 0.45 0.45 74 1014.4
20260902221018 81 248 2.0 4.0 0.00 0.45 0.45 75 1014.5
20260902220018 81 225 2.0 4.0 0.00 0.45 0.45 73 1014.5
20260902215038 81 248 3.0 4.0 0.00 0.45 0.45 74 1014.7
20260902214017 81 248 2.0 4.0 0.00 0.45 0.45 75 1014.8
20260902213017 81 225 2.0 5.0 0.00 0.45 0.45 74 1014.7
20260902212017 81 225 1.0 4.0 0.00 0.45 0.45 75 1014.7
20260902211017 81 248 1.0 3.0 0.00 0.45 0.45 77 1014.8
20260902210020 81 225 2.0 4.0 0.00 0.45 0.45 76 1014.8
20260902205018 80 225 2.0 5.0 0.00 0.45 0.45 81 1015.0
20260902204017 79 248 3.0 6.0 0.00 0.45 0.45 83 1015.0
20260902203022 77 270 1.0 5.0 0.00 0.45 0.45 93 1015.0
20260902202018 76 90 1.0 3.0 0.00 0.45 0.45 95 1015.2
20260902201017 75 0.0 3.0 0.00 0.45 0.45 95 1015.4
20260902200017 75 0.0 3.0 0.00 0.45 0.45 95 1015.5
20260902195017 75 0.0 1.0 0.00 0.45 0.45 96 1015.3
20260902194017 74 0.0 0.0 0.00 0.45 0.45 96 1015.2
20260902193017 74 0.0 1.0 0.00 0.45 0.45 96 1015.2
20260902192017 73 338 1.0 3.0 0.00 0.45 0.45 96 1015.2
20260902191017 73 338 1.0 2.0 0.00 0.45 0.45 95 1015.1
20260902190017 73 248 1.0 2.0 0.00 0.45 0.45 96 1015.3
20260902185018 73 45 2.0 4.0 0.00 0.45 0.45 95 1015.1
20260902184038 73 315 1.0 3.0 0.00 0.45 0.45 96 1015.4
20260902183017 73 0.0 2.0 0.00 0.45 0.45 96 1015.5
20260902182017 73 113 1.0 5.0 0.00 0.45 0.45 96 1015.6
20260902181017 72 90 1.0 3.0 0.00 0.45 0.45 95 1015.6
20260902180017 72 338 1.0 2.0 0.00 0.45 0.45 96 1015.6
20260902175017 71 270 1.0 2.0 0.00 0.45 0.45 95 1015.7
20260902174017 71 23 1.0 4.0 0.00 0.45 0.45 95 1015.6
20260902173017 71 0.0 1.0 0.00 0.45 0.45 96 1015.7
20260902172037 71 90 1.0 4.0 0.00 0.45 0.45 95 1015.9
20260902171017 71 0.0 1.0 0.00 0.45 0.45 96 1015.9
20260902170037 69 90 1.0 3.0 0.00 0.45 0.45 96 1015.8
20260902165017 70 90 1.0 3.0 0.00 0.45 0.45 96 1015.9
20260902164017 70 0.0 2.0 0.00 0.45 0.45 97 1016.1
20260902163018 69 0.0 2.0 0.00 0.45 0.45 98 1016.2
20260902162017 68 0.0 1.0 0.00 0.45 0.45 97 1016.1
20260902161017 68 0.0 2.0 0.00 0.45 0.45 97 1016.2
20260902160017 68 0.0 2.0 0.00 0.45 0.45 98 1016.1
20260902155017 67 270 1.0 2.0 0.00 0.45 0.45 98 1016.0
20260902154016 67 0.0 0.0 0.00 0.45 0.45 98 1016.0
20260902153017 66 0.0 0.0 0.00 0.45 0.45 98 1016.1
20260902152017 66 270 1.0 2.0 0.01 0.45 0.45 98 1016.1
20260902151036 65 0.0 1.0 0.01 0.45 0.45 98 1015.8
20260902150016 66 0.0 0.0 0.01 0.45 0.45 98 1015.6
20260902145016 65 0.0 1.0 0.01 0.45 0.45 98 1015.4
20260902144016 65 0.0 2.0 0.01 0.45 0.45 98 1015.5
20260902143016 65 90 1.0 4.0 0.01 0.45 0.45 98 1015.2
20260902142017 65 45 2.0 4.0 0.00 0.44 0.44 98 1014.9
20260902141018 64 45 1.0 3.0 0.00 0.44 0.44 98 1015.7
20260902140018 64 338 1.0 3.0 0.01 0.44 0.44 98 1016.6
20260902135037 64 270 3.0 6.0 0.01 0.44 0.44 98 1017.4
20260902134016 64 270 3.0 6.0 0.01 0.44 0.44 98 1017.3
20260902133017 64 270 5.0 8.0 0.02 0.44 0.44 98 1016.8
20260902132016 64 225 1.0 3.0 0.02 0.44 0.44 98 1017.1
20260902131036 64 225 3.0 5.0 0.02 0.44 0.44 98 1016.6
20260902130036 64 225 2.0 4.0 0.01 0.43 0.43 98 1017.0
20260902125016 64 0.0 2.0 0.01 0.43 0.43 98 1016.7
20260902124016 64 90 1.0 4.0 0.01 0.43 0.43 98 1015.7
20260902123016 64 0.0 2.0 0.02 0.42 0.42 98 1015.8
20260902122016 64 248 1.0 3.0 0.02 0.42 0.42 98 1015.4
20260902121016 64 0.0 2.0 0.02 0.42 0.42 98 1015.6
20260902120016 64 90 3.0 6.0 0.02 0.42 0.42 98 1015.5
20260902115016 64 90 5.0 9.0 0.02 0.42 0.42 98 1015.7
20260902114017 63 90 1.0 2.0 0.02 0.42 0.42 98 1015.9
20260902113017 63 0.0 1.0 0.00 0.40 0.40 98 1016.1
20260902112037 63 90 2.0 6.0 0.01 0.40 0.40 97 1016.0
20260902111016 63 90 2.0 5.0 0.02 0.40 0.40 98 1016.2
20260902110016 63 90 1.0 3.0 0.11 0.40 0.40 97 1016.5
20260902105016 63 90 3.0 7.0 0.14 0.40 0.40 97 1016.8
20260902104016 63 90 2.0 4.0 0.23 0.40 0.40 97 1016.9
20260902103016 63 90 2.0 5.0 0.38 0.40 0.40 97 1016.7
20260902102016 63 45 2.0 5.0 0.39 0.39 0.39 96 1017.5
20260902101016 65 293 8.0 16.0 0.38 0.38 0.38 95 1018.4
20260902100016 68 270 24.0 36.0 0.29 0.29 0.29 94 1020.0
20260902095517 68 270 17.0 25.0 0.27 0.27 0.27 93 1018.8
20260902094600 69 270 1.0 3.0 0.23 0.23 0.23 96 1016.5
20260902093537 69 225 3.0 5.0 0.10 0.10 0.10 95 1016.3
20260902092517 69 270 1.0 4.0 0.00 0.00 0.00 95 1015.4
20260902091516 69 0.0 1.0 0.00 0.00 0.00 94 1015.0
20260902090516 69 0.0 0.0 0.00 0.00 0.00 94 1015.3
20260902085516 69 0.0 0.0 0.00 0.00 0.00 93 1015.6
20260902084516 70 0.0 2.0 0.00 0.00 0.00 93 1015.4
20260902083516 70 90 1.0 3.0 0.00 0.00 0.00 93 1015.6
20260902082516 70 0.0 0.0 0.00 0.00 0.00 92 1015.9
20260902081516 70 225 5.0 7.0 0.00 0.00 0.00 93 1016.5
20260902080516 69 0.0 0.0 0.00 0.00 0.00 93 1015.1
20260902075516 70 0.0 0.0 0.00 0.00 0.00 93 1015.3
20260902074530 69 0.0 0.0 0.00 0.00 0.00 93 1015.1
20260902073516 69 0.0 0.0 0.00 0.00 0.00 94 1015.1
20260902072558 68 0.0 0.0 0.00 0.00 0.00 94 1014.8
20260902071516 68 0.0 0.0 0.00 0.00 0.00 94 1014.8
20260902070517 68 0.0 0.0 0.00 0.00 0.00 94 1015.1
20260902065515 68 0.0 0.0 0.00 0.00 0.00 93 1015.2
20260902064516 68 0.0 0.0 0.00 0.00 0.00 93 1015.3
20260902063515 68 0.0 0.0 0.00 0.00 0.00 93 1015.0
20260902062515 68 0.0 0.0 0.00 0.00 0.00 92 1015.3
20260902061536 69 0.0 0.0 0.00 0.00 0.00 92 1015.4
20260902060536 69 0.0 0.0 0.00 0.00 0.00 91 1015.3
20260902055515 70 0.0 0.0 0.00 0.00 0.00 90 1014.9
20260902054515 71 0.0 0.0 0.00 0.00 0.00 89 1015.0
20260902053515 72 225 1.0 2.0 0.00 0.00 0.00 88 1015.3
20260902052515 72 203 1.0 2.0 0.00 0.00 0.00 87 1015.2
20260902051515 73 270 1.0 2.0 0.00 0.00 0.00 85 1014.9
20260902050516 73 270 2.0 3.0 0.00 0.00 0.00 86 1014.7
20260902045536 74 0.0 1.0 0.00 0.00 0.00 85 1014.8
20260902044516 74 225 1.0 2.0 0.00 0.00 0.00 84 1014.9
20260902043516 75 225 2.0 3.0 0.00 0.00 0.00 82 1015.1
20260902042516 76 225 1.0 3.0 0.00 0.00 0.00 80 1014.9
20260902041515 77 225 3.0 4.0 0.00 0.00 0.00 78 1015.0
20260902040515 77 225 2.0 3.0 0.00 0.00 0.00 79 1015.0
20260902035516 77 248 2.0 3.0 0.00 0.00 0.00 79 1014.9
20260902034516 77 248 3.0 4.0 0.00 0.00 0.00 80 1014.9
20260902033516 77 248 2.0 3.0 0.00 0.00 0.00 79 1014.9
20260902032515 78 248 3.0 4.0 0.00 0.00 0.00 78 1014.9
20260902031517 78 225 3.0 4.0 0.00 0.00 0.00 78 1014.8
20260902030515 78 225 3.0 5.0 0.00 0.00 0.00 78 1014.6
20260902025516 78 225 3.0 4.0 0.00 0.00 0.00 79 1014.6
20260902024536 78 225 3.0 4.0 0.00 0.00 0.00 81 1014.5
20260902023535 78 225 2.0 3.0 0.00 0.00 0.00 81 1014.4
20260902022516 78 225 2.0 3.0 0.00 0.00 0.00 81 1014.5
20260902021515 78 225 1.0 3.0 0.00 0.00 0.00 82 1014.4
20260902020518 78 225 1.0 3.0 0.00 0.00 0.00 83 1014.4
20260902015517 78 0.0 1.0 0.00 0.00 0.00 83 1014.3
20260902014517 78 0.0 1.0 0.00 0.00 0.00 82 1014.3
20260902013518 78 0.0 1.0 0.00 0.00 0.00 81 1014.2
20260902012518 78 0.0 0.0 0.00 0.00 0.00 80 1014.2
20260902011517 78 0.0 0.0 0.00 0.00 0.00 82 1014.2
20260902010517 78 0.0 0.0 0.00 0.00 0.00 82 1014.1
20260902005518 79 0.0 0.0 0.00 0.00 0.00 81 1014.1
20260902004517 80 0.0 1.0 0.00 0.00 0.00 80 1013.9
20260902003517 80 0.0 1.0 0.00 0.00 0.00 76 1014.0
20260902002517 81 225 1.0 2.0 0.00 0.00 0.00 76 1014.1
20260902001517 81 0.0 1.0 0.00 0.00 0.00 74 1013.9
20260902000517 82 0.0 1.0 0.00 0.00 0.00 76 1013.7
20260901235518 81 0.0 1.0 0.00 0.00 0.00 77 1013.6